Location: Innsbruck
(47.2657°N, 11.3914°E)
Time: 03:16:58
(UTC+02:00)

Envisat - Pass Details

Date: 04 February 2023
Orbit: 763 x 765 km, 98.2° (Epoch: 28 March)

Event Time Altitude Azimuth Distance (km) Brightness Sun altitude
Rises 04:24:41 0° 14° (NNE) 3,245 6.6 -32.7°
Reaches altitude 10° 04:27:00 10° 15° (NNE) 2,314 5.7 -32.4°
Enters shadow 04:29:17 27° 18° (NNE) 1,442 4.6 -32.0°
